Regional Weather Roundup
Issued by NWS

Home | Current Version | Previous Version | Text Only | Print | Product List | Glossary Off
Versions: 1 2 3 4 5 6 7 8 9 10 11 12 13 14 15 16 17 18 19 20 21 22 23 24 25 26 27 28 29 30 31 32 33 34 35 36 37 38 39 40 41 42 43 44 45 46 47 48 49 50

000
ASUS43 KLSX 160507
RWRMO

WEATHER SUMMARY FOR MISSOURI
NATIONAL WEATHER SERVICE SPRINGFIELD MO
1200 AM CDT WED AUG 16 2017

NOTE: "FAIR" INDICATES FEW OR NO CLOUDS BELOW 12,000 FEET WITH NO
       SIGNIFICANT WEATHER AND/OR OBSTRUCTIONS TO VISIBILITY.
       CURRENT SKY AND/OR WEATHER CONDITIONS ARE NOT AVAILABLE FOR
       CHILLICOTHE AND FARMINGTON.

MOZ001>031-035>038-043-044-053-054-160600-
...NORTHERN AND WESTERN MISSOURI...

CITY           SKY/WX    TMP DP  RH WIND       PRES   REMARKS
KANSAS CTY INT CLOUDY    77  71  82 SE9       29.87F
KANSAS C DTWN  CLOUDY    81  72  74 SE7       29.85F
LEE`S SUMMIT   CLOUDY    76  72  87 SE7       29.88F
ST JOSEPH      CLOUDY    77  72  84 SE6       29.86F
CHILLICOTHE      N/A     71  70  96 CALM      29.90S
KIRKSVILLE     CLEAR     70  68  93 E6        29.92F

$$
MOZ066>068-077>081-088>096-101>105-160600-
...SOUTHWEST MISSOURI...

CITY           SKY/WX    TMP DP  RH WIND       PRES   REMARKS
SPRINGFIELD    LGT RAIN  77  75  93 S10       29.89R
JOPLIN         CLOUDY    75  74  96 S8        29.89R
BRANSON        CLOUDY    75  75 100 SE7       29.94R

$$
MOZ032>034-039>042-045>050-055>058-069>072-160600-
...CENTRAL MISSOURI...

CITY           SKY/WX    TMP DP  RH WIND       PRES   REMARKS
COLUMBIA       CLOUDY    75  70  84 SE5       29.90F
JEFFERSON CITY CLOUDY    76  74  93 SE7       29.89S
ROLLA          MOCLDY    75  71  87 SE9       29.94S
SEDALIA        PTCLDY    75  73  93 SE7       29.90S
WHITEMAN AFB   MOCLDY    75  75 100 SE6       29.87S
WARRENSBURG    CLOUDY    73  68  83 E3        29.87F
OSAGE BEACH    CLOUDY    76  72  87 S6        29.91F

$$
MOZ051-052-059>065-160600-
...EAST CENTRAL MISSOURI...

CITY           SKY/WX    TMP DP  RH WIND       PRES   REMARKS
ST LOUIS INTL  MOCLDY    80  72  76 S10       29.93S
SPIRIT OF STL  PTCLDY    79  72  79 S6        29.91F
ST CHARLES     CLEAR     73  69  87 SE5       29.91S

$$
MOZ072>076-082>087-097>100-106>115-160600-
...SOUTH CENTRAL AND SOUTHEAST MISSOURI...

CITY           SKY/WX    TMP DP  RH WIND       PRES   REMARKS
CAPE GIRARDEAU CLOUDY    72  70  93 E3        29.94F
FARMINGTON     MOCLDY    73  72  96 S3        29.97F
POPLAR BLUFF   CLOUDY    73  72  96 CALM      29.93F
WEST PLAINS    CLOUDY    75  73  93 S7        29.95S

$$



USA.gov is the U.S. government's official web portal to all federal, state and local government web resources and services.